Simultaneous Nadir Overpasses (SNOs) Predictions

Prediction of SNOs near US between AQUA and NPP Satellite Orbit:

Table of predicted SNOs near US for the next 10.0 days since TLE Epoch: 5/10/2019
Index Date (AQUA) Time (AQUA) AQUA Lat,Lon Date (NPP) Time (NPP) NPP Lat,Lon Distance(km) Time Diff (sec)
1 05/11/2019 19:06:36 49.99, -92.55 05/11/2019 19:01:04 49.67, -94.42 138.78 332
2 05/11/2019 20:45:29 49.99,-117.27 05/11/2019 20:42:32 49.56,-119.74 184.06 177
3 05/14/2019 10:12:17 26.79,-124.99 05/14/2019 10:05:49 25.39,-126.07 189.34 388
4 05/17/2019 07:18:57 49.93, -75.99 05/17/2019 07:20:06 50.35, -78.17 162.31 69
5 05/17/2019 08:57:50 49.93,-100.71 05/17/2019 09:01:34 50.46,-103.50 206.80 224
6 05/19/2019 18:17:05 49.98, -80.17 05/19/2019 18:10:23 49.68, -81.75 117.66 402
7 05/19/2019 19:55:58 49.98,-104.89 05/19/2019 19:51:51 49.57,-107.07 162.92 247
8 05/19/2019 21:31:08 36.68,-124.99 05/19/2019 21:29:30 36.19,-127.57 237.65 98




NCC Satellite Simultaneous Nadir Overpasses (SNOs) Prediction Service
